www.pogodaiklimat.ru

Погода и климат >> Архив погоды >> Китай >> Внутренняя Монголия >> Гуайцзыху


ПОГОДА в Гуайцзыху

  • Прогноз погоды в Гуайцзыху
  • Монитор погоды в Гуайцзыху

АРХИВ ПОГОДЫ в Гуайцзыху

Время (UTC), дата Ветер
(напр.,м/с)
 
Видим.   Явления Облачность Т
(С)
Тd
(С)
f
(%)
Тe
(С)
Тes
(С)
Комфортность P
(гПа)
Po
(гПа)
Тmin
(С)
Tmax
(С)
R
(мм)
R24
(мм)
S
(см)
03 12.03 В 5 25 км 1/1
[]
+1.3 -17.1 24 -3 +1 1024.3 908.9
06 12.03 С 2 30 км ясно +8.8 -18.1 13 +8 +19 опасность
простуды
1022.8 910.4 -8.3
09 12.03 С 2 30 км ясно +11.8 -17.7 11 +12 +15 1022.6 911.4
12 12.03 С 1 30 км 1/1
[]
+6.6 -18.2 15 +7 +7 1026.5 912.9
18 12.03 З 4 28 км ?/? -0.3 -17.9 25 -5 -5 1026.2 909.9 +11.8
21 12.03 Ю 6 25 км н/о -1.5 -18.5 26 -7 -7 1025.6 908.9
00 13.03 З 6 24 км 3/3
[]
-0.3 -17.5 26 -6 -6 1028.4 911.9
03 13.03 З 7 30 км ясно +5.6 -14.5 22 +1 +4 1030.6 916.2
06 13.03 З 8 21 км ясно +10.1 -16.2 14 +7 +9 1029.0 916.5 -2.5
09 13.03 З 7 30 км ясно +12.0 -19.9 9 +10 +11 1028.1 916.4
12 13.03 З 4 30 км ясно +7.7 -20.9 11 +6 +6 1029.7 916.2
18 13.03 З 3 30 км ?/? -0.4 -21.2 19 -4 -4 1030.3 913.5 +12.6
21 13.03 Ю 3 30 км н/о -4.4 -21.5 25 -9 -9 1030.3 911.9
00 14.03 В 1 30 км ясно -4.7 -20.9 27 -6 -6 1032.5 913.7
03 14.03 С 1 29 км ясно +4.1 -20.2 15 +4 +14 опасность
простуды
1033.0 917.7
06 14.03 С 1 30 км ясно +11.7 -18.9 10 +12 +26 опасность
простуды
1031.3 919.1 -6.0
09 14.03 СЗ 3 30 км ясно +13.6 -20.1 8 +13 +16 1030.6 919.2
12 14.03 В 1 30 км ясно +8.0 -21.8 10 +8 +8 1032.5 918.8
18 14.03 Ю 5 30 км ?/? +0.4 -20.0 20 -4 -4 1029.8 916.4 +13.6
21 14.03 Ю 1 30 км н/о -0.2 -19.4 22 -1 -1 1028.3 911.8
00 15.03 В 1 30 км ясно -2.9 -19.7 26 -4 -3 1030.5 912.7
03 15.03 СВ 1 30 км ясно +6.6 -19.0 14 +7 +17 опасность
простуды
1029.7 915.8
06 15.03 Ю 1 30 км ясно +13.5 -21.7 7 +14 +28 опасность
простуды
1025.4 912.8 -4.0
09 15.03 Ю 1 30 км в посл. час морось н/о +14.8 -24.5 5 +16 +16 1022.5 912.4
12 15.03 В 1 30 км ясно +8.7 -25.3 7 +9 +9 1025.6 912.9
18 15.03 Ю 4 30 км ?/? 0.0 -24.4 14 -4 -4 1025.3 909.3 +15.2
21 15.03 Ю 5 30 км н/о -1.0 -24.4 15 -6 -6 1024.5 908.1
00 16.03 З 2 30 км ясно +0.3 -25.8 12 -2 -1 1027.0 910.9
03 16.03 С 2 30 км ясно +7.6 -24.6 8 +7 +15 1028.6 915.2
06 16.03 С 2 30 км ясно +14.5 -24.8 5 +15 +26 опасность
простуды
1025.3 914.8 -1.5
09 16.03 С 3 30 км 3/3
[]
+16.0 -29.3 3 +16 +18 1022.7 913.0
12 16.03 В 1 30 км 9/9
[]
+8.4 -27.2 6 +9 +9 1024.8 912.1
18 16.03 Ю 7 30 км ?/? +4.1 -27.3 8 -0 -0 1020.7 906.8 +16.4
21 16.03 Ю 8 30 км н/о +4.9 -29.8 6 +1 +1 1017.8 904.5
00 17.03 Ю 5 30 км 9/9
[]
+5.3 -23.9 10 +2 +2 1020.0 908.0
03 17.03 З 6 29 км 9/9
[]
+12.0 -21.3 8 +10 +10 1019.8 909.0
06 17.03 З 6 28 км 3/3
[]
+16.0 -23.7 5 +15 +18 1017.0 907.9 +3.3
09 17.03 З 10 10 км 3/3
[]
+17.6 -22.5 5 +16 +16 1014.3 906.1
12 17.03 З 4 30 км 1/1
[]
+11.7 -21.5 8 +10 +10 1015.6 905.1
18 17.03 ЮЗ 8 25 км ?/? +9.1 -19.8 11 +6 +6 1011.8 900.8 +18.0
21 17.03 Ю 8 24 км н/о +8.2 -19.5 12 +5 +5 1010.0 898.8
00 18.03 Ю 8 14 км 9/9
[]
+6.2 -18.5 15 +2 +2 1011.7 899.6
03 18.03 З 9 4700 м пыльный позёмок 9/9
[]
+14.8 -19.2 8 +13 +13 1010.1 901.3
06 18.03 З 9 7000 м 9/9
[]
+17.8 -18.5 7 +17 +17 1007.5 899.3 +5.4
09 18.03 З 8 16 км 9/9
[]
+19.1 -19.3 6 +18 +18 1004.1 897.5
12 18.03 ЮЗ 4 19 км 8/8
[]
+13.4 -18.9 9 +12 +12 1004.6 895.9
18 18.03 Ю 7 19 км ?/? +8.3 -20.5 11 +5 +5 1001.0 893.3 +19.4
21 18.03 З 4 18 км н/о +8.8 -20.1 11 +7 +7 999.6 889.8
00 19.03 З 7 21 км 9/9
[]
+6.9 -9.9 29 +3 +3 1003.5 894.5

 

Местоположение метеостанции Гуайцзыху (Внутренняя Монголия, Китай): широта 41.37 долгота 102.36 высота над уровнем моря 960 м.

В архиве по умолчанию представлена погода в Гуайцзыху за последнюю неделю. Архивные данные за месяц целиком и за предыдущие месяцы, начиная с января 2011 года, Вы можете получить, выбрав интересующий диапазон дат из раскрывающегося списка и нажав кнопку "Ввод!".


*Определитесь, кто Вы:
робот инопланетянин человек

Внимание! Время в таблицах - всемирное. Для получения местного времени необходимо прибавить поправку, которая равна 8 ч.

Смотрите также архив погоды в соседних городах и на ближайших метеорологических станциях:

Погода в Эдзин-Ци (Внутренняя Монголия, Китай) (126 км)
Погода в Баян Мод (Внутренняя Монголия, Китай) (192 км)
Погода в Шинэ Уса (Монголия) (246 км)
Погода в Даланзадгаде (Монголия) (298 км)
Погода в Миньцине (Цинхай, Китай) (311 км)
Погода в Чжанъе (Цинхай, Китай) (317 км)
Погода в Баинвендурьере (Внутренняя Монголия, Китай) (335 км)
Погода в Джартае (Внутренняя Монголия, Китай) (337 км)
Погода в Богде (Монголия) (365 км)
Погода в Цзюцюан (Ганьсу, Китай) (373 км)

Пояснения к столбцам:

Ветер - указаны скорость ветра в м/с - средняя за 10 мин, порывы в срок и между сроками (в фигурных скобках) и направление, откуда дует ветер: С - северный, СВ - северо-восточный, В - восточный, ЮВ - юго-восточный, Ю - южный, ЮЗ - юго-западный, З - западный, СЗ - северо-западный.
Видимость - горизонтальная дальность видимости в метрах или километрах. При видимости от 1 до 10 км при отсутствии осадков обычно наблюдается дымка, при ухудшении видимости до 1 км и менее - туман. В сухую погоду видимость может ухудшаться дымом, пылью или мглою.
Явления - указаны атмосферные явления, наблюдавшиеся в срок или в последний час перед сроком; фигурными скобками обозначены явления, наблюдавшиеся между сроками (за 1-3 часа до срока); квадратными скобками обозначены град или гололедные отложения с указанием их диаметра в мм.
Облачность - указаны через наклонную черту общая и нижняя облачность в баллах и высота нижней границы облаков в метрах; квадратными скобками обозначены формы облаков: Ci - перистые, Cs - перисто-слоистые, Cc - перисто-кучевые, Ac - высококучевые, As - высокослоистые, Sc - слоисто-кучевые, Ns - слоисто-дождевые, Cu - кучевые, Cb - кучево-дождевые. Подробнее классификацию облаков см. в Атласе облаков (PDF).
T - Температура воздуха - температура, измеренная на высоте 2 м над землей.
Td - Температура точки росы - температура, при понижении до которой содержащийся в воздухе водяной пар достигнет насыщения.
f - Относительная влажность воздуха - влажноcть воздуха, измеренная на высоте 2 м над землей.
Te - Эффективная температура - температура, которую ощущает одетый по сезону человек в тени. Характеристика душности погоды. При расчете учитывается влияние влажности воздуха и скорости ветра на теплоощущения человека.
Tes - Эффективная температура на солнце - температура, которую ощущает человек, с поправкой на солнечный нагрев. Характеристика знойности погоды. Зависит от высоты солнца над горизонтом, облачности и скорости ветра. Ночью, в пасмурную погоду, а также при ветре 12 м/с и более поправка равна нулю.
P - Атмосферное давление - приведенное к уровню моря атмосферное давление.
Po - Атмосферное давление - измеренное на уровне метеостанции атмосферное давление.
Tmin - Минимальная температура - минимум температуры воздуха на высоте 2 м над землей.
Tmax - Максимальная температура - максимум температуры воздуха на высоте 2 м над землей.
R - Количество осадков - Количество выпавших осадков за период времени, мм. При наведении курсора мыши на число - период времени, за который выпало указанное количество осадков.
R24 - Количество осадков - Количество выпавших осадков за 24 часа, мм.
S - Снежный покров - Высота снежного покрова, см. При наведении курсора мыши на число - состояние снежного покрова и степень покрытия местности в баллах.